Location: Complexul Astronomic Baia Mare
(47.6577°N, 23.5639°E)
Time: 07:47:44
(UTC+03:00)

ISS - Pass Details

Date: 01 June 2017
Orbit: 401 x 408 km, 51.6° (Epoch: 22 October)

Event Time Altitude Azimuth Distance (km) Brightness Sun altitude
Rises 22:02:20 0° 277° (W) 2,365 1.0 -6.9°
Reaches altitude 10° 22:04:31 10° 285° (WNW) 1,500 0.1 -7.1°
Maximum altitude 22:07:44 40° 357° (N) 632 -2.4 -7.5°
Drops below altitude 10° 22:10:55 10° 69° (ENE) 1,495 -1.2 -7.9°
Enters shadow 22:13:52 -3° 79° (ENE) 2,670 0.0 -8.2°
